Weather History for Indian Springs, NV

Change the Weather History Date:

Thursday, November 24, 2011

  Actual Average (KDRA) Record (KDRA)
Temperature  
Mean Temperature 48 °F -  
Max Temperature 61 °F 57 °F 71 °F (2012)
Min Temperature 34 °F 35 °F 28 °F (2010)
Degree Days  
Heating Degree Days 18    
Moisture  
Dew Point 28 °F    
Average Humidity 52    
Maximum Humidity 70    
Minimum Humidity 31    
Precipitation  
Precipitation 0.00 in - - ()
Sea Level Pressure  
Sea Level Pressure 29.93 in    
Wind  
Wind Speed 5 mph (West)    
Max Wind Speed 14 mph    
Max Gust Speed -    
Visibility 10 miles    
Events      
Averages and records for this station are not official NWS values.
T = Trace of Precipitation, MM = Missing Value Source: NWS Daily Summary

Daily Weather History Graph

Daily Weather History Graph

Search for Another Location

Airport:

Trip Planner

Search our weather history database for the weather conditions in past years. The results will help you decide how hot, cold, wet, or windy it might be!

Date:

Astronomy

Nov. 24, 2011 Rise Set
Actual Time 6:29 AM PST 4:29 PM PST
Civil Twilight 6:01 AM PST 4:57 PM PST
Nautical Twilight 5:29 AM PST 5:28 PM PST
Astronomical Twilight 4:58 AM PST 5:59 PM PST
Moon 5:51 AM PST (11/24) 4:04 PM PST (11/24)
Length of Visible Light 10h 55m
Length of Day
9h 59m
Waning Crescent, 0% of the Moon is Illuminated
Nov 24
Waning Crescent
Nov 24
New
Dec 2
First Quarter
Dec 10
Full
Dec 17
Last Quarter

Hourly Weather History & Observations

Time (PST) Temp. Windchill Dew Point Humidity Pressure Visibility Wind Dir Wind Speed Gust Speed Precip Events Conditions
12:56 AM 37.0 °F 32.4 °F 26.1 °F 65% 29.88 in 10.0 mi West 5.8 mph - N/A   Clear
1:56 AM 37.0 °F 32.4 °F 26.1 °F 65% 29.87 in 10.0 mi SW 5.8 mph - N/A   Clear
2:56 AM 37.9 °F - 27.0 °F 65% 29.86 in 10.0 mi Calm Calm - N/A   Clear
3:56 AM 34.0 °F - 25.0 °F 70% 29.87 in 10.0 mi Calm Calm - N/A   Clear
4:56 AM 35.6 °F 31.7 °F 26.6 °F 70% 29.89 in 10.0 mi WSW 4.6 mph - N/A   Clear
5:56 AM 37.9 °F - 27.0 °F 65% 29.91 in 10.0 mi Calm Calm - N/A   Clear
6:05 AM - - - N/A% - - North - - N/A   Unknown
6:56 AM 37.9 °F - 27.0 °F 65% 29.93 in 10.0 mi Calm Calm - N/A   Clear
7:56 AM 37.9 °F - 27.0 °F 65% 29.96 in 10.0 mi Calm Calm - N/A   Clear
8:56 AM 45.0 °F - 28.9 °F 53% 29.95 in 10.0 mi Calm Calm - N/A   Clear
10:56 AM 57.9 °F - 33.1 °F 39% 29.89 in 10.0 mi ESE 8.1 mph - N/A   Clear
12:56 PM 61.0 °F - 32.0 °F 34% 29.88 in 10.0 mi WNW 13.8 mph - N/A   Clear
1:56 PM 60.8 °F - 30.2 °F 31% 29.87 in 10.0 mi North 6.9 mph - N/A   Clear
2:56 PM 60.8 °F - 30.2 °F 31% 29.93 in 10.0 mi North 4.6 mph - N/A   Clear
3:01 PM - - - N/A% - - North - - N/A   Unknown
3:56 PM 60.1 °F - 30.9 °F 33% 29.90 in 10.0 mi Calm Calm - N/A   Clear
4:56 PM 55.9 °F - 30.9 °F 39% 29.92 in 10.0 mi NNW 5.8 mph - N/A   Clear
5:56 PM 53.1 °F - 28.9 °F 40% 29.94 in 10.0 mi West 8.1 mph - N/A   Clear
5:58 PM - - - N/A% - - North - - N/A   Unknown
5:59 PM - - - N/A% - - North - - N/A   Unknown
6:00 PM - - - N/A% - - North - - N/A   Unknown
6:56 PM 48.9 °F - 28.9 °F 46% 29.96 in 10.0 mi SSW 8.1 mph - N/A   Clear
7:56 PM 46.0 °F 41.4 °F 28.0 °F 50% 29.98 in 10.0 mi SW 9.2 mph - N/A   Clear
8:56 PM 43.0 °F 38.8 °F 28.0 °F 56% 29.99 in 10.0 mi WNW 6.9 mph - N/A   Clear
9:56 PM 46.0 °F 41.9 °F 28.9 °F 51% 29.98 in 10.0 mi West 8.1 mph - N/A   Clear
10:56 PM 39.9 °F 35.8 °F 27.0 °F 60% 29.99 in 10.0 mi North 5.8 mph - N/A   Clear
11:56 PM 39.9 °F 33.9 °F 27.0 °F 60% 30.01 in 10.0 mi WSW 9.2 mph - N/A   Clear